EW5380 Weather Reports


time (UTC)temp
F
wind
direction
speed
knots
gust
knots
rain 1hr
in
rain 24hr
in
rain mn
in
humidity
%
barometer
mb
20260503184831 59 90 1.7 6.1 0.00 0.00 0.00 39 1018.1
20260503184327 59 331 1.7 7.0 0.00 0.00 0.00 36 1018.5
20260503183823 59 114 0.9 7.0 0.00 0.00 0.00 37 1018.5
20260503183321 59 49 0.9 6.1 0.00 0.00 0.00 40 1018.5
20260503182818 59 173 0.9 6.1 0.00 0.00 0.00 39 1018.5
20260503182317 58 281 0.0 6.1 0.00 0.00 0.00 42 1018.5
20260503181814 58 308 0.9 6.1 0.00 0.00 0.00 37 1018.5
20260503181311 58 275 1.7 6.1 0.00 0.00 0.00 39 1018.5
20260503180807 58 313 1.7 6.1 0.00 0.00 0.00 40 1018.8
20260503180306 57 246 1.7 9.6 0.00 0.00 0.00 38 1018.5
20260503175801 57 308 1.7 9.6 0.00 0.00 0.00 38 1018.8
20260503175300 57 277 0.9 5.2 0.00 0.00 0.00 41 1018.8
20260503174755 57 276 1.7 5.2 0.00 0.00 0.00 42 1018.8
20260503174253 56 239 1.7 5.2 0.00 0.00 0.00 44 1018.8
20260503173748 56 267 0.9 5.2 0.00 0.00 0.00 44 1018.8
20260503173244 56 321 1.7 7.8 0.00 0.00 0.00 43 1019.2
20260503172741 55 162 1.7 7.8 0.00 0.00 0.00 43 1019.2
20260503172238 55 302 0.9 7.0 0.00 0.00 0.00 43 1019.2
20260503171735 55 265 1.7 6.1 0.00 0.00 0.00 45 1019.2
20260503171232 55 298 1.7 6.1 0.00 0.00 0.00 44 1019.2
20260503170729 55 138 1.7 6.1 0.00 0.00 0.00 45 1019.6
20260503170226 55 26 1.7 4.3 0.00 0.00 0.00 45 1019.6
20260503160147 53 310 0.9 4.3 0.00 0.00 0.00 47 1020.3
20260503150618 50 277 0.9 6.1 0.00 0.00 0.00 54 1020.7
20260503150114 50 124 1.7 6.1 0.00 0.00 0.00 54 1020.3
20260503131007 46 243 0.9 4.3 0.00 0.00 0.00 70 1020.3
20260503130505 46 243 0.9 4.3 0.00 0.00 0.00 70 1020.3
20260503110350 37 146 0.0 4.3 0.00 0.00 0.00 85 1019.2
20260503090235 40 274 0.9 3.5 0.00 0.00 0.00 78 1017.8
20260503081203 41 261 1.7 6.1 0.00 0.00 0.00 76 1017.3
20260503080658 41 282 0.9 4.3 0.00 0.00 0.00 76 1017.0
20260503080155 41 275 1.7 6.1 0.00 0.00 0.00 75 1017.0
20260503072632 41 276 0.0 1.7 0.00 0.00 0.00 76 1016.7
20260503072129 41 276 0.0 0.9 0.00 0.00 0.00 76 1016.7
20260503071626 41 276 0.0 4.3 0.00 0.00 0.00 76 1016.7
20260503071122 41 276 0.0 4.3 0.00 0.00 0.00 76 1016.7
20260503070620 41 119 0.0 3.5 0.00 0.00 0.00 75 1016.7
20260503070118 41 119 0.0 3.5 0.00 0.00 0.00 75 1016.7
20260503055038 42 153 0.0 3.5 0.00 0.00 0.00 73 1016.7
20260503054534 42 148 0.0 1.7 0.00 0.00 0.00 73 1016.7
20260503054031 42 146 0.0 1.7 0.00 0.00 0.00 72 1016.7
20260503053529 42 146 0.0 3.5 0.00 0.00 0.00 73 1016.7
20260503053027 42 146 0.0 3.5 0.00 0.00 0.00 72 1016.7
20260503052523 42 146 0.0 1.7 0.00 0.00 0.00 72 1016.7
20260503052020 42 146 0.9 3.5 0.00 0.00 0.00 71 1016.7
20260503051515 42 151 0.9 3.5 0.00 0.00 0.00 72 1016.7
20260503051013 42 151 0.9 4.3 0.00 0.00 0.00 72 1016.7
20260503050509 42 154 0.9 4.3 0.00 0.00 0.00 72 1016.7
20260503050007 43 142 0.9 3.5 0.00 0.00 0.00 72 1016.7
20260503045504 43 124 0.9 3.5 0.00 0.00 0.00 71 1016.7
20260503045001 43 144 0.9 3.5 0.00 0.00 0.00 71 1016.7
20260503044457 43 146 0.9 3.5 0.00 0.00 0.00 72 1016.7
20260503043955 43 157 0.9 4.3 0.00 0.00 0.00 73 1016.3
20260503043450 43 157 0.9 4.3 0.00 0.00 0.00 73 1016.3
20260503042947 43 138 0.9 4.3 0.00 0.00 0.00 72 1016.3
20260503042444 43 147 0.9 4.3 0.00 0.00 0.00 72 1016.3
20260503041941 43 152 0.9 4.3 0.00 0.00 0.00 71 1016.3
20260503041437 43 139 1.7 7.0 0.00 0.00 0.00 70 1016.3
20260503040935 44 147 0.9 7.0 0.00 0.00 0.00 70 1016.3
20260503040432 44 141 0.9 4.3 0.00 0.00 0.00 68 1015.9
20260503035929 44 147 0.9 4.3 0.00 0.00 0.00 69 1015.9
20260503035426 44 151 0.9 4.3 0.00 0.00 0.00 67 1015.9
20260503034924 45 145 0.9 3.5 0.00 0.00 0.00 67 1015.9
20260503034421 45 147 0.9 3.5 0.00 0.00 0.00 67 1015.9
20260503033918 45 153 0.9 3.5 0.00 0.00 0.00 64 1015.6
20260503033415 46 137 0.9 7.0 0.00 0.00 0.00 63 1015.6
20260503032913 46 144 0.9 7.0 0.00 0.00 0.00 62 1015.6
20260503032412 46 267 0.0 3.5 0.00 0.00 0.00 61 1015.6
20260503031909 46 288 0.0 5.2 0.00 0.00 0.00 61 1015.6
20260503031407 46 261 0.0 5.2 0.00 0.00 0.00 61 1015.6
20260503030903 46 277 0.0 3.5 0.00 0.00 0.00 61 1015.6
20260503030359 46 142 0.0 3.5 0.00 0.00 0.00 61 1015.6
20260503025856 46 270 0.0 1.7 0.00 0.00 0.00 61 1015.6
20260503025353 46 132 0.0 3.5 0.00 0.00 0.00 61 1015.6
20260503024850 47 142 0.0 3.5 0.00 0.00 0.00 60 1015.6
20260503024347 47 103 0.0 3.5 0.00 0.00 0.00 60 1015.6
20260503023843 47 65 0.0 3.5 0.00 0.00 0.00 59 1015.6
20260503023340 47 261 0.9 5.2 0.00 0.00 0.00 58 1015.6
20260503022837 47 154 0.9 5.2 0.00 0.00 0.00 58 1015.6
20260503022332 48 277 0.0 4.3 0.00 0.00 0.00 57 1015.6
20260503021829 48 244 0.0 4.3 0.00 0.00 0.00 56 1015.2
20260503021325 48 267 0.9 6.1 0.00 0.00 0.00 56 1015.2
20260503020822 48 346 0.9 6.1 0.00 0.00 0.00 55 1015.2
20260503020321 48 317 0.9 6.1 0.00 0.00 0.00 55 1015.2
20260503015816 49 242 1.7 9.6 0.00 0.00 0.00 55 1015.2
20260503015314 49 248 0.9 8.7 0.00 0.00 0.00 54 1015.2
20260503014809 49 290 0.9 7.0 0.00 0.00 0.00 55 1015.2
20260503014307 49 273 0.9 7.0 0.00 0.00 0.00 54 1014.9
20260503013804 49 105 0.9 7.8 0.00 0.00 0.00 54 1014.9
20260503013302 49 266 1.7 7.8 0.00 0.00 0.00 53 1014.9
20260503012758 49 300 2.6 7.8 0.00 0.00 0.00 53 1014.9
20260503012255 49 137 1.7 7.8 0.00 0.00 0.00 53 1014.9
20260503011752 49 273 0.9 6.1 0.00 0.00 0.00 54 1014.4
20260503011249 50 279 0.9 7.0 0.00 0.00 0.00 53 1014.4
20260503010745 50 279 0.9 7.0 0.00 0.00 0.00 53 1014.4
20260503010242 50 314 1.7 7.0 0.00 0.00 0.00 53 1014.4
20260503005740 50 203 1.7 7.0 0.00 0.00 0.00 52 1014.4
20260503005237 50 291 2.6 10.4 0.00 0.00 0.00 52 1014.1
20260503004732 50 161 2.6 10.4 0.00 0.00 0.00 51 1014.1
20260503004231 50 277 3.5 12.2 0.00 0.00 0.00 50 1014.1
20260503003728 51 274 3.5 12.2 0.00 0.00 0.00 50 1014.1
20260503003225 51 252 3.5 11.3 0.00 0.00 0.00 50 1014.1
20260503002722 51 304 2.6 11.3 0.00 0.00 0.00 50 1014.1
20260503002219 51 299 1.7 11.3 0.00 0.00 0.00 49 1013.8
20260503001714 51 310 1.7 7.8 0.00 0.00 0.00 49 1013.8
20260503001211 51 287 2.6 9.6 0.00 0.00 0.00 48 1013.8
20260503000709 52 279 2.6 9.6 0.00 0.00 0.00 48 1013.8
20260503000206 52 302 2.6 9.6 0.00 0.00 0.00 48 1013.4
20260502235703 52 80 1.7 9.6 0.00 0.00 0.00 47 1013.4
20260502235201 53 271 1.7 7.0 0.00 0.00 0.00 47 1013.4
20260502234657 53 270 2.6 11.3 0.00 0.00 0.00 46 1013.4
20260502234149 53 294 2.6 11.3 0.00 0.00 0.00 45 1013.0
20260502233645 53 267 1.7 13.0 0.00 0.00 0.00 45 1013.0
20260502233142 54 215 2.6 13.0 0.00 0.00 0.00 45 1013.0
20260502232638 54 231 3.5 18.2 0.00 0.00 0.00 44 1013.4
20260502232135 54 308 3.5 18.2 0.00 0.00 0.00 43 1013.0
20260502231631 54 294 2.6 12.2 0.00 0.00 0.00 44 1013.0
20260502231129 55 277 2.6 12.2 0.00 0.00 0.00 44 1013.0
20260502230627 55 274 2.6 13.0 0.00 0.00 0.00 43 1013.0
20260502230120 55 311 1.7 13.0 0.00 0.00 0.00 43 1013.0
20260502225615 55 134 2.6 8.7 0.00 0.00 0.00 44 1013.0
20260502225112 55 234 2.6 8.7 0.00 0.00 0.00 42 1013.0
20260502224608 55 279 2.6 6.1 0.00 0.00 0.00 43 1013.0
20260502224105 54 269 1.7 9.6 0.00 0.00 0.00 44 1013.0
20260502223603 54 121 1.7 9.6 0.00 0.00 0.00 46 1013.0
20260502223101 54 182 2.6 11.3 0.00 0.00 0.00 43 1013.0
20260502222558 55 309 3.5 11.3 0.00 0.00 0.00 44 1013.0
20260502222054 55 355 3.5 10.4 0.00 0.00 0.00 43 1013.0
20260502221550 55 311 3.5 13.0 0.00 0.00 0.00 44 1013.0
20260502221048 55 284 3.5 13.0 0.00 0.00 0.00 44 1012.6
20260502220543 55 325 2.6 11.3 0.00 0.00 0.00 44 1013.0
20260502220040 55 270 2.6 17.4 0.00 0.00 0.00 45 1012.6
20260502215537 55 284 4.3 17.4 0.00 0.00 0.00 42 1012.6
20260502215034 55 304 4.3 13.0 0.00 0.00 0.00 42 1012.6
20260502214531 55 282 3.5 13.0 0.00 0.00 0.00 44 1012.6
20260502214029 56 286 2.6 16.5 0.00 0.00 0.00 45 1012.6
20260502213525 56 296 4.3 16.5 0.00 0.00 0.00 41 1012.3
20260502213023 56 22 5.2 18.2 0.00 0.00 0.00 41 1012.3
20260502212522 56 289 4.3 18.2 0.00 0.00 0.00 42 1012.3
20260502212019 56 145 5.2 11.3 0.00 0.00 0.00 42 1012.3
20260502211515 56 296 5.2 12.2 0.00 0.00 0.00 41 1012.3
20260502211012 57 328 3.5 12.2 0.00 0.00 0.00 43 1012.3
20260502210509 57 294 3.5 13.0 0.00 0.00 0.00 42 1012.0
20260502210006 57 300 3.5 13.0 0.00 0.00 0.00 42 1012.0
20260502205502 57 296 3.5 13.0 0.00 0.00 0.00 42 1012.0
20260502204959 57 311 3.5 13.0 0.00 0.00 0.00 40 1012.0
20260502204456 58 269 2.6 7.0 0.00 0.00 0.00 41 1012.0
20260502203954 58 298 2.6 7.8 0.00 0.00 0.00 41 1012.0
20260502203451 58 294 1.7 7.8 0.00 0.00 0.00 43 1012.0
20260502202947 58 309 2.6 13.0 0.00 0.00 0.00 44 1012.0
20260502202444 58 279 2.6 13.0 0.00 0.00 0.00 40 1012.0
20260502201942 57 319 1.7 7.0 0.00 0.00 0.00 41 1012.0
20260502201438 57 342 3.5 7.0 0.00 0.00 0.00 40 1012.0
20260502200935 57 269 2.6 12.2 0.00 0.00 0.00 43 1012.0
20260502200430 57 319 2.6 8.7 0.00 0.00 0.00 43 1012.0
20260502195928 57 267 2.6 7.8 0.00 0.00 0.00 39 1012.0
20260502195425 58 278 2.6 11.3 0.00 0.00 0.00 45 1012.0
20260502194922 58 5 2.6 8.7 0.00 0.00 0.00 41 1012.0
20260502194419 57 300 2.6 8.7 0.00 0.00 0.00 42 1012.0
20260502193914 57 123 2.6 8.7 0.00 0.00 0.00 45 1012.0
20260502193412 56 269 1.7 7.0 0.00 0.00 0.00 41 1012.0
20260502192907 56 304 1.7 7.0 0.00 0.00 0.00 42 1012.3
20260502192404 56 0 2.6 9.6 0.00 0.00 0.00 43 1012.3
20260502191902 56 311 2.6 9.6 0.00 0.00 0.00 44 1012.6
20260502191359 55 309 1.7 8.7 0.00 0.00 0.00 43 1012.6
20260502190856 55 306 2.6 7.0 0.00 0.00 0.00 44 1012.6
20260502190354 55 319 2.6 8.7 0.00 0.00 0.00 46 1012.6
20260502185849 56 336 1.7 8.7 0.00 0.00 0.00 41 1012.6
20260502185345 56 263 0.9 4.3 0.00 0.00 0.00 45 1012.6